�N����,����,�~����,�C��,���x,�C��,����,���ϕ���,�ő�u�ԕ���,�ő厞����,���˗�,�I�_���x,�n�����x,�ő啗���N��,DTYPE
"20/05/30","00:10",0.0,16.1,59.5,1011.4,332.5,2.0,4.2,333.5,0.00,8.3,20.0,"00:03:04",1
"20/05/30","00:20",0.0,16.1,60.3,1011.4,336.1,2.5,3.6,344.6,0.00,8.5,19.9,"00:16:24",1
"20/05/30","00:30",0.0,16.1,59.7,1011.6,329.3,2.5,4.8,341.0,0.00,8.3,19.9,"00:22:16",1
"20/05/30","00:40",0.0,16.3,59.1,1011.6,331.6,3.0,5.1,339.0,0.00,8.3,19.8,"00:38:48",1
"20/05/30","00:50",0.0,15.9,60.5,1011.9,336.7,2.2,3.5,340.7,0.00,8.3,19.7,"00:40:32",1
"20/05/30","01:00",0.0,16.0,60.7,1011.9,331.0,2.7,5.5,341.0,0.00,8.5,19.8,"00:56:40",1
"20/05/30","01:10",0.0,15.8,61.1,1011.9,335.1,2.0,4.5,325.7,0.00,8.4,19.7,"01:02:56",1
"20/05/30","01:20",0.0,15.3,62.8,1012.1,332.9,2.0,3.6,351.8,0.00,8.3,19.5,"01:16:40",1
"20/05/30","01:30",0.0,15.5,63.1,1012.1,329.8,2.5,4.2,326.0,0.00,8.6,19.6,"01:20:02",1
"20/05/30","01:40",0.0,15.6,62.6,1012.3,331.0,2.2,4.0,300.6,0.00,8.5,19.3,"01:31:36",1
"20/05/30","01:50",0.0,15.1,63.3,1012.1,336.0,1.8,3.6,336.5,0.00,8.2,19.2,"01:45:12",1
"20/05/30","02:00",0.0,14.9,64.5,1012.3,335.8,1.8,3.7,333.7,0.00,8.3,19.1,"01:51:36",1
"20/05/30","02:10",0.0,14.6,65.2,1012.1,335.8,2.0,3.6,322.6,0.00,8.2,19.3,"02:04:16",1
"20/05/30","02:20",0.0,14.4,65.8,1012.1,330.3,2.0,3.3,336.1,0.00,8.1,19.1,"02:18:08",1
"20/05/30","02:30",0.0,14.2,66.0,1012.3,338.6,1.8,3.9,338.1,0.00,8.0,18.9,"02:23:36",1
"20/05/30","02:40",0.0,14.2,66.1,1011.9,337.6,2.2,3.2,337.8,0.00,8.0,19.0,"02:37:22",1
"20/05/30","02:50",0.0,14.2,66.1,1012.1,341.3,2.0,3.9,343.9,0.00,8.0,18.8,"02:43:20",1
"20/05/30","03:00",0.0,14.1,65.9,1012.3,334.4,2.3,3.5,344.7,0.00,7.9,18.7,"02:56:56",1
"20/05/30","03:10",0.0,14.0,65.6,1012.6,331.7,2.1,3.1,331.4,0.00,7.7,18.7,"03:00:24",1
"20/05/30","03:20",0.0,14.0,65.6,1012.1,336.3,2.0,4.2,337.7,0.00,7.7,18.9,"03:12:32",1
"20/05/30","03:30",0.0,14.0,65.8,1012.3,336.8,2.1,3.3,335.9,0.00,7.8,18.6,"03:26:26",1
"20/05/30","03:40",0.0,13.9,66.6,1012.1,335.2,2.1,3.5,336.3,0.00,7.8,18.5,"03:32:56",1
"20/05/30","03:50",0.0,13.7,66.9,1012.3,332.0,2.0,2.9,329.9,0.00,7.7,18.5,"03:42:32",1
"20/05/30","04:00",0.0,13.7,67.5,1012.6,338.6,2.0,3.5,331.4,0.00,7.8,18.4,"03:56:24",1
"20/05/30","04:10",0.0,13.6,68.1,1012.3,331.6,1.8,2.9,333.1,0.00,7.9,18.4,"04:00:56",1
"20/05/30","04:20",0.0,13.6,68.6,1012.3,338.8,1.8,3.5,334.5,0.00,8.0,18.3,"04:11:44",1
"20/05/30","04:30",0.0,13.4,69.1,1012.6,330.8,2.1,3.7,335.5,0.00,7.9,18.3,"04:20:48",1
"20/05/30","04:40",0.0,13.4,69.3,1012.6,327.4,2.6,4.0,328.2,0.00,7.9,18.2,"04:36:46",1
"20/05/30","04:50",0.0,13.4,69.4,1012.8,326.1,2.5,3.9,335.2,0.00,8.0,18.2,"04:46:48",1
"20/05/30","05:00",0.0,13.5,69.8,1012.8,329.4,2.7,3.9,320.0,0.00,8.1,18.2,"04:53:20",1
"20/05/30","05:10",0.0,13.4,70.1,1013.0,327.5,2.5,3.7,336.6,0.00,8.1,18.4,"05:03:28",1
"20/05/30","05:20",0.0,13.6,70.2,1013.5,330.7,2.6,3.7,320.3,0.00,8.3,18.0,"05:10:24",1
"20/05/30","05:30",0.0,13.7,70.4,1013.5,329.6,2.3,3.4,341.1,0.00,8.5,18.2,"05:24:00",1
"20/05/30","05:40",0.0,13.9,70.2,1013.3,329.3,2.6,3.6,353.4,0.01,8.6,18.2,"05:38:48",1
"20/05/30","05:50",0.0,14.1,70.0,1013.5,328.2,2.6,4.0,338.9,0.02,8.8,17.9,"05:44:08",1
"20/05/30","06:00",0.0,14.5,69.9,1013.8,329.5,2.2,3.4,326.9,0.02,9.1,17.8,"05:55:52",1
"20/05/30","06:10",0.0,14.6,69.6,1014.0,329.9,2.1,3.2,340.8,0.03,9.2,17.9,"06:07:08",1
"20/05/30","06:20",0.0,15.0,69.1,1013.8,331.2,2.0,3.3,333.6,0.05,9.4,18.0,"06:18:48",1
"20/05/30","06:30",0.0,15.3,68.4,1014.0,334.2,2.5,4.1,341.1,0.06,9.6,18.1,"06:23:28",1
"20/05/30","06:40",0.0,16.2,67.3,1014.0,341.1,2.0,4.1,336.2,0.11,10.2,18.2,"06:31:20",1
"20/05/30","06:50",0.0,17.0,65.2,1014.2,343.8,1.6,2.9,345.4,0.09,10.5,18.2,"06:43:44",1
"20/05/30","07:00",0.0,17.0,64.1,1014.5,340.1,1.5,2.5,346.4,0.09,10.2,18.2,"06:50:48",1
"20/05/30","07:10",0.0,17.8,62.9,1014.5,332.1,1.5,2.6,342.0,0.17,10.7,18.4,"07:03:44",1
"20/05/30","07:20",0.0,18.5,60.7,1014.7,334.4,2.0,3.5,338.2,0.19,10.8,18.5,"07:11:52",1
"20/05/30","07:30",0.0,18.8,59.1,1014.0,329.4,1.8,2.7,325.4,0.15,10.7,18.7,"07:22:32",1
"20/05/30","07:40",0.0,19.2,58.8,1013.8,315.9,1.6,3.9,339.2,0.20,11.0,18.7,"07:38:16",1
"20/05/30","07:50",0.0,19.9,57.3,1013.8,328.7,1.7,3.1,345.7,0.27,11.3,18.8,"07:42:40",1
"20/05/30","08:00",0.0,21.1,53.0,1014.0,304.6,0.8,1.7,352.1,0.33,11.2,19.0,"07:59:20",1
"20/05/30","08:10",0.0,22.1,48.3,1013.5,252.9,0.6,1.7,35.5,0.35,10.7,19.3,"08:04:24",1
"20/05/30","08:20",0.0,22.3,48.9,1013.3,172.8,0.5,1.4,134.7,0.26,11.1,19.6,"08:19:12",1
"20/05/30","08:30",0.0,23.2,46.4,1013.3,121.5,0.6,1.6,115.9,0.39,11.1,19.7,"08:20:48",1
"20/05/30","08:40",0.0,23.8,45.5,1013.0,163.1,0.5,1.1,119.2,0.35,11.4,20.2,"08:31:04",1
"20/05/30","08:50",0.0,24.0,42.5,1012.8,197.1,1.0,2.1,183.9,0.41,10.5,20.5,"08:46:24",1
"20/05/30","09:00",0.0,24.0,41.9,1012.6,183.2,0.8,1.8,121.2,0.34,10.3,20.5,"08:53:44",1
"20/05/30","09:10",0.0,24.8,41.1,1012.3,147.3,0.8,2.0,140.2,0.47,10.7,21.0,"09:09:06",1
"20/05/30","09:20",0.0,25.1,40.7,1012.6,124.9,1.2,2.2,159.4,0.48,10.9,21.1,"09:17:52",1
"20/05/30","09:30",0.0,25.6,39.1,1012.6,114.9,0.8,3.5,120.6,0.50,10.7,21.5,"09:24:32",1
"20/05/30","09:40",0.0,25.8,38.8,1012.6,116.6,1.2,2.5,131.3,0.50,10.8,21.8,"09:34:16",1
"20/05/30","09:50",0.0,26.3,38.9,1012.8,176.8,0.7,2.2,185.8,0.49,11.3,22.3,"09:47:36",1
"20/05/30","10:00",0.0,26.9,39.9,1012.8,90.2,1.0,2.7,43.1,0.56,12.2,22.5,"09:58:32",1
"20/05/30","10:10",0.0,26.7,37.8,1012.6,78.4,1.1,2.7,199.7,0.46,11.2,22.6,"10:09:04",1
"20/05/30","10:20",0.0,27.1,37.9,1012.6,150.4,1.5,2.6,168.0,0.54,11.6,22.9,"10:19:12",1
"20/05/30","10:30",0.0,27.4,37.3,1013.0,137.9,1.0,3.7,162.9,0.53,11.6,23.3,"10:24:08",1
"20/05/30","10:40",0.0,27.9,36.0,1013.0,37.5,1.0,2.2,91.6,0.53,11.5,23.5,"10:39:20",1
"20/05/30","10:50",0.0,28.0,35.2,1013.0,98.0,1.1,3.1,116.6,0.57,11.3,23.8,"10:40:16",1
"20/05/30","11:00",0.0,28.8,38.2,1012.8,135.6,0.7,2.4,130.4,0.59,13.2,24.3,"10:52:00",1
"20/05/30","11:10",0.0,28.3,38.3,1012.8,134.9,1.7,4.3,132.6,0.59,12.8,24.3,"11:03:44",1
"20/05/30","11:20",0.0,28.8,36.1,1013.0,296.3,1.1,2.6,192.7,0.62,12.3,24.7,"11:10:16",1
"20/05/30","11:30",0.0,28.8,36.2,1013.0,150.5,1.3,3.4,113.1,0.58,12.4,25.0,"11:25:52",1
"20/05/30","11:40",0.0,29.1,36.7,1013.3,186.3,1.1,2.5,106.6,0.58,12.9,25.3,"11:39:04",1
"20/05/30","11:50",0.0,29.3,36.6,1013.3,351.1,1.2,3.2,347.7,0.61,13.0,25.5,"11:42:48",1
"20/05/30","12:00",0.0,29.4,34.8,1013.0,131.7,1.5,4.3,133.7,0.61,12.3,25.8,"11:55:12",1
"20/05/30","12:10",0.0,29.6,33.9,1013.0,151.0,1.0,3.1,145.8,0.56,12.1,25.8,"12:05:28",1
"20/05/30","12:20",0.0,29.5,32.7,1012.8,139.9,1.5,2.8,121.8,0.56,11.5,26.1,"12:15:04",1
"20/05/30","12:30",0.0,29.8,32.3,1012.8,21.3,1.3,3.5,229.5,0.56,11.5,26.4,"12:23:52",1
"20/05/30","12:40",0.0,30.1,31.9,1012.8,143.7,1.2,3.2,132.7,0.57,11.6,26.3,"12:32:00",1
"20/05/30","12:50",0.0,30.1,27.7,1012.6,142.4,1.3,3.2,141.7,0.58,9.5,26.5,"12:42:48",1
"20/05/30","13:00",0.0,29.1,31.0,1012.3,104.7,1.2,2.9,140.1,0.28,10.3,26.3,"12:59:28",1
"20/05/30","13:10",0.0,29.7,32.3,1011.9,110.8,1.2,2.7,114.6,0.58,11.4,26.2,"13:05:44",1
"20/05/30","13:20",0.0,29.3,31.2,1011.9,65.1,0.8,2.5,19.5,0.23,10.6,26.2,"13:17:12",1
"20/05/30","13:30",0.0,28.5,35.8,1011.2,74.2,1.1,2.4,118.5,0.16,11.9,25.9,"13:29:28",1
"20/05/30","13:40",0.0,28.5,36.1,1011.2,29.1,1.0,2.8,44.3,0.22,12.1,26.0,"13:31:36",1
"20/05/30","13:50",0.0,29.0,35.2,1011.2,117.2,1.5,3.6,155.5,0.40,12.1,25.9,"13:48:32",1
"20/05/30","14:00",0.0,29.3,34.3,1010.9,164.5,1.5,3.5,120.7,0.32,12.0,25.7,"13:54:56",1
"20/05/30","14:10",0.0,28.6,37.1,1011.2,146.0,1.1,2.9,164.0,0.15,12.6,25.7,"14:08:54",1
"20/05/30","14:20",0.0,28.0,37.5,1010.7,150.7,1.8,3.5,147.9,0.18,12.2,25.8,"14:14:48",1
"20/05/30","14:30",0.0,28.6,36.1,1010.2,151.1,1.2,3.4,134.8,0.28,12.2,25.6,"14:27:44",1
"20/05/30","14:40",0.0,28.2,39.0,1010.2,135.9,2.2,4.1,130.9,0.25,13.0,25.4,"14:38:16",1
"20/05/30","14:50",0.0,28.4,38.7,1010.2,147.7,1.8,3.5,165.7,0.28,13.0,25.5,"14:46:48",1
"20/05/30","15:00",0.0,28.5,38.6,1010.4,122.1,1.5,3.6,127.5,0.24,13.1,25.5,"14:51:36",1
"20/05/30","15:10",0.0,27.9,39.7,1010.4,117.1,1.8,4.3,108.9,0.16,13.0,25.5,"15:04:24",1
"20/05/30","15:20",0.0,27.4,40.3,1009.7,110.4,1.7,4.0,120.0,0.10,12.8,25.2,"15:14:08",1
"20/05/30","15:30",0.0,27.2,39.3,1009.7,101.9,1.8,4.1,148.6,0.08,12.2,25.2,"15:23:36",1
"20/05/30","15:40",0.0,27.3,40.3,1009.5,80.7,1.2,3.4,39.0,0.11,12.7,25.3,"15:36:00",1
"20/05/30","15:50",0.0,27.3,39.5,1009.5,91.9,1.1,2.9,69.1,0.11,12.4,25.1,"15:40:40",1
"20/05/30","16:00",0.0,27.3,39.7,1009.5,76.9,0.8,1.9,84.9,0.07,12.5,25.0,"15:54:00",1
"20/05/30","16:10",0.0,27.6,40.8,1009.5,86.9,0.7,2.1,118.4,0.14,13.1,24.9,"16:00:32",1
"20/05/30","16:20",0.0,27.3,40.0,1009.5,144.5,1.1,3.2,159.5,0.08,12.6,24.8,"16:12:00",1
"20/05/30","16:30",0.0,27.3,40.0,1009.7,97.2,1.5,5.7,128.4,0.11,12.6,24.9,"16:20:02",1
"20/05/30","16:40",0.0,26.4,44.1,1010.2,147.1,2.7,5.5,170.8,0.05,13.3,24.7,"16:37:12",1
"20/05/30","16:50",0.0,26.0,43.1,1010.2,161.7,3.0,6.6,133.6,0.10,12.5,24.8,"16:49:52",1
"20/05/30","17:00",0.0,26.5,45.1,1010.2,162.3,3.2,6.2,196.4,0.11,13.7,24.4,"16:53:12",1
"20/05/30","17:10",0.0,25.2,48.7,1010.7,153.4,2.7,5.7,138.9,0.06,13.7,24.6,"17:08:32",1
"20/05/30","17:20",0.0,25.1,50.6,1010.7,160.2,2.7,5.2,140.6,0.07,14.2,24.3,"17:10:32",1
"20/05/30","17:30",0.0,24.7,51.3,1011.2,153.3,2.6,5.0,181.4,0.06,14.0,24.2,"17:22:08",1
"20/05/30","17:40",0.0,24.5,53.1,1010.9,163.3,2.2,3.7,198.5,0.06,14.4,24.1,"17:36:32",1
"20/05/30","17:50",0.0,24.4,52.9,1011.2,160.1,2.1,4.4,169.3,0.04,14.2,24.1,"17:49:20",1
"20/05/30","18:00",0.0,24.3,53.1,1011.6,160.5,1.7,3.3,139.3,0.03,14.2,23.9,"17:54:16",1
"20/05/30","18:10",0.0,24.2,53.4,1011.9,144.7,1.2,2.7,129.8,0.02,14.2,24.0,"18:01:04",1
"20/05/30","18:20",0.0,24.1,53.4,1011.9,149.8,1.3,2.9,125.8,0.01,14.1,23.7,"18:19:20",1
"20/05/30","18:30",0.0,24.0,52.4,1011.6,150.0,1.2,2.0,154.9,0.00,13.7,23.5,"18:22:00",1
"20/05/30","18:40",0.0,24.0,52.2,1011.6,140.2,1.6,3.1,137.7,0.00,13.6,23.5,"18:30:56",1
"20/05/30","18:50",0.0,23.8,52.9,1011.6,167.4,1.2,3.1,124.7,0.00,13.7,23.4,"18:45:04",1
"20/05/30","19:00",0.0,23.7,54.2,1011.6,327.7,0.6,1.4,292.7,0.00,13.9,23.3,"18:58:56",1
"20/05/30","19:10",0.0,23.2,56.7,1011.9,317.7,1.1,2.1,341.9,0.00,14.2,23.2,"19:07:52",1
"20/05/30","19:20",0.0,22.6,59.6,1011.6,331.2,1.3,2.1,340.1,0.00,14.4,23.1,"19:19:04",1
"20/05/30","19:30",0.0,22.1,61.1,1012.1,304.6,1.1,1.9,341.8,0.00,14.3,23.1,"19:20:48",1
"20/05/30","19:40",0.0,21.6,62.1,1012.3,300.5,0.8,1.7,325.9,0.00,14.1,22.9,"19:30:24",1
"20/05/30","19:50",0.0,21.3,63.3,1012.1,292.5,0.8,1.3,320.1,0.00,14.1,22.6,"19:41:28",1
"20/05/30","20:00",0.0,20.9,64.4,1012.1,326.3,0.8,1.2,327.7,0.00,14.0,22.6,"19:54:48",1
"20/05/30","20:10",0.0,20.6,65.9,1012.1,325.5,0.7,1.2,339.4,0.00,14.0,22.6,"20:00:56",1
"20/05/30","20:20",0.0,20.4,66.8,1012.3,307.1,0.7,1.4,263.8,0.00,14.1,22.5,"20:13:28",1
"20/05/30","20:30",0.0,20.2,67.7,1012.1,295.1,1.1,2.4,341.9,0.00,14.1,22.1,"20:28:24",1
"20/05/30","20:40",0.0,20.1,68.3,1012.8,319.8,1.2,2.1,333.7,0.00,14.1,22.2,"20:38:24",1
"20/05/30","20:50",0.0,19.9,68.9,1012.8,289.5,1.0,1.9,339.2,0.00,14.1,22.0,"20:40:48",1
"20/05/30","21:00",0.0,19.8,69.4,1012.8,309.6,1.5,2.8,327.3,0.00,14.1,22.0,"20:53:04",1
"20/05/30","21:10",0.0,19.8,70.0,1012.3,309.9,1.2,2.5,327.7,0.00,14.2,22.0,"21:08:16",1
"20/05/30","21:20",0.0,20.0,69.7,1013.0,310.8,1.2,3.3,343.0,0.00,14.3,21.7,"21:11:36",1
"20/05/30","21:30",0.0,19.9,69.5,1013.0,284.5,0.7,1.4,236.9,0.00,14.2,21.8,"21:26:32",1
"20/05/30","21:40",0.0,19.7,69.4,1012.8,278.9,0.7,1.1,281.5,0.00,14.0,21.7,"21:34:32",1
"20/05/30","21:50",0.0,19.6,69.3,1013.3,297.8,0.7,1.3,327.8,0.00,13.9,21.6,"21:46:48",1
"20/05/30","22:00",0.0,19.4,69.9,1013.5,294.3,0.8,1.1,306.5,0.00,13.8,21.6,"21:52:08",1
"20/05/30","22:10",0.0,19.2,70.4,1013.5,278.1,0.7,1.1,327.9,0.00,13.7,21.4,"22:02:08",1
"20/05/30","22:20",0.0,19.1,70.9,1013.0,292.9,0.7,1.1,307.5,0.00,13.7,21.4,"22:15:52",1
"20/05/30","22:30",0.0,18.9,71.5,1013.0,290.7,0.6,1.2,316.7,0.00,13.7,21.2,"22:21:36",1
"20/05/30","22:40",0.0,18.8,72.4,1013.3,283.1,0.8,1.4,271.0,0.00,13.8,21.3,"22:37:36",1
"20/05/30","22:50",0.0,18.7,73.4,1013.0,306.8,1.0,2.5,341.3,0.00,13.9,21.2,"22:44:24",1
"20/05/30","23:00",0.0,18.6,73.9,1013.0,312.7,1.0,1.7,323.2,0.00,13.9,21.0,"22:54:56",1
"20/05/30","23:10",0.0,18.3,74.3,1013.0,292.9,0.5,0.9,329.8,0.00,13.7,21.1,"23:05:04",1
"20/05/30","23:20",0.0,18.4,75.6,1013.0,314.3,1.1,1.7,336.3,0.00,14.1,20.9,"23:17:20",1
"20/05/30","23:30",0.0,18.1,77.4,1013.0,307.7,1.0,1.3,348.0,0.00,14.1,20.9,"23:21:20",1
"20/05/30","23:40",0.0,17.9,78.6,1013.0,287.7,0.8,1.6,319.9,0.00,14.2,20.7,"23:36:32",1
"20/05/30","23:50",0.0,17.9,79.0,1013.3,295.7,1.0,1.6,321.0,0.00,14.2,20.8,"23:46:24",1
"20/05/30","24:00",0.0,17.8,79.2,1013.0,294.6,1.0,1.2,297.7,0.00,14.2,20.5,"23:50:08",1
